This is the latest recevied weather packets stored in our database for station/object PI1GDA-1. If no packets are shown the sender has not sent any weather packets the latest 1 day(s).
| Time | Temp. | Humidity | Pressure | Rain* | Wind** | Luminosity | Snow |
|---|---|---|---|---|---|---|---|
| 1778031394 | 9.44° C | 84% | 1009.7 hPa | 0 mm | 1.79 m/s, 0° | - | - |
| 1778030793 | 10° C | 84% | 1009.7 hPa | 0 mm | 1.34 m/s, 22° | - | - |
| 1778030191 | 10° C | 83% | 1009.7 hPa | 0 mm | 1.79 m/s, 22° | - | - |
| 1778029589 | 10° C | 84% | 1009.8 hPa | 0 mm | 1.79 m/s, 315° | - | - |
| 1778028989 | 10° C | 83% | 1009.9 hPa | 0 mm | 1.79 m/s, 45° | - | - |
| 1778028387 | 10° C | 83% | 1010 hPa | 0 mm | 1.79 m/s, 338° | - | - |
| 1778027787 | 10° C | 83% | 1010 hPa | 0 mm | 1.79 m/s, 338° | - | - |
| 1778027186 | 10° C | 83% | 1010.2 hPa | 0 mm | 1.79 m/s, 338° | - | - |
| 1778026585 | 10° C | 82% | 1010.4 hPa | 0 mm | 1.34 m/s, 22° | - | - |
| 1778025984 | 10° C | 82% | 1010.3 hPa | 0 mm | 1.79 m/s, 0° | - | - |
| 1778025383 | 10° C | 82% | 1010.3 hPa | 0 mm | 1.79 m/s, 22° | - | - |
| 1778024782 | 10° C | 82% | 1010.4 hPa | 0 mm | 1.34 m/s, 45° | - | - |
| 1778024180 | 10° C | 82% | 1010.4 hPa | 0 mm | 1.34 m/s, 315° | - | - |
| 1778023580 | 10° C | 82% | 1010.5 hPa | 0 mm | 1.34 m/s, 0° | - | - |
| 1778022979 | 10° C | 81% | 1010.7 hPa | 0 mm | 1.34 m/s, 0° | - | - |
| 1778022379 | 10° C | 81% | 1010.8 hPa | 0 mm | 1.34 m/s, 22° | - | - |
| 1778021777 | 10° C | 80% | 1010.8 hPa | 0 mm | 1.34 m/s, 0° | - | - |
| 1778021177 | 10° C | 80% | 1010.8 hPa | 0 mm | 1.34 m/s, 338° | - | - |
| 1778020575 | 10° C | 80% | 1011 hPa | 0 mm | 1.34 m/s, 0° | - | - |
| 1778019974 | 10° C | 79% | 1010.9 hPa | 0 mm | 1.34 m/s, 22° | - | - |
| 1778019373 | 10.56° C | 79% | 1011 hPa | 0 mm | 1.79 m/s, 338° | - | - |
| 1778018773 | 10.56° C | 79% | 1010.8 hPa | 0 mm | 2.24 m/s, 315° | - | - |
| 1778018171 | 10.56° C | 79% | 1010.9 hPa | 0 mm | 2.24 m/s, 90° | - | - |
| 1778017570 | 10.56° C | 78% | 1011 hPa | 0 mm | 1.79 m/s, 0° | - | - |
| 1778016970 | 10.56° C | 78% | 1011.2 hPa | 0 mm | 1.79 m/s, 0° | - | - |
* Rain latest hour (hover to see other rain measurements)
** Current wind speed in m/s (hover to see current wind gust speed)